TimeEST,TemperatureF,Dew PointF,Humidity,Sea Level PressureIn,VisibilityMPH,Wind Direction,Wind SpeedMPH,Gust SpeedMPH,PrecipitationIn,Events,Conditions,WindDirDegrees,DateUTC
12:07 AM,44.6,44.6,100,29.59,5.0,Calm,Calm,-,0.03,Rain,Rain,0,2013-11-27 05:07:00
12:44 AM,44.6,44.6,100,29.59,5.0,Calm,Calm,-,0.15,Rain,Light Rain,0,2013-11-27 05:44:00
12:54 AM,43.0,43.0,100,29.60,3.0,West,4.6,-,0.20,Rain,Rain,260,2013-11-27 05:54:00
1:18 AM,42.8,42.8,100,29.58,6.0,Calm,Calm,-,0.06,Rain,Light Rain,0,2013-11-27 06:18:00
1:28 AM,42.8,42.8,100,29.57,8.0,Calm,Calm,-,0.07,Rain,Light Rain,0,2013-11-27 06:28:00
1:36 AM,42.8,42.8,100,29.57,9.0,Calm,Calm,-,0.07,Rain,Light Rain,0,2013-11-27 06:36:00
1:50 AM,42.8,42.8,100,29.57,10.0,Calm,Calm,-,0.08,,Overcast,0,2013-11-27 06:50:00
1:54 AM,43.0,43.0,100,29.58,10.0,Calm,Calm,-,0.08,,Overcast,0,2013-11-27 06:54:00
2:03 AM,42.8,42.8,100,29.58,10.0,Calm,Calm,-,N/A,,Overcast,0,2013-11-27 07:03:00
2:38 AM,42.8,42.8,100,29.56,8.0,Calm,Calm,-,0.00,Rain,Light Rain,0,2013-11-27 07:38:00
2:54 AM,43.0,43.0,100,29.58,10.0,SW,4.6,-,0.00,,Overcast,220,2013-11-27 07:54:00
3:54 AM,43.0,43.0,100,29.56,3.0,Calm,Calm,-,0.07,Rain,Light Rain,0,2013-11-27 08:54:00
4:46 AM,42.8,42.8,100,29.52,6.0,Calm,Calm,-,0.02,Rain,Light Rain,0,2013-11-27 09:46:00
4:54 AM,43.0,43.0,100,29.55,7.0,Calm,Calm,-,0.02,Rain,Light Rain,0,2013-11-27 09:54:00
5:54 AM,43.0,43.0,100,29.57,10.0,Calm,Calm,-,0.00,,Overcast,0,2013-11-27 10:54:00
6:54 AM,43.0,37.9,82,29.58,10.0,Variable,5.8,-,N/A,,Overcast,0,2013-11-27 11:54:00
7:54 AM,41.0,35.1,79,29.60,10.0,Variable,4.6,-,0.00,,Overcast,0,2013-11-27 12:54:00
8:54 AM,39.9,32.0,73,29.62,10.0,NNW,8.1,20.7,N/A,,Overcast,330,2013-11-27 13:54:00
9:54 AM,39.0,30.9,73,29.62,10.0,North,5.8,21.9,N/A,,Overcast,350,2013-11-27 14:54:00
10:54 AM,37.9,30.0,73,29.63,10.0,Variable,5.8,-,N/A,,Overcast,0,2013-11-27 15:54:00
11:54 AM,39.9,28.0,63,29.62,10.0,North,9.2,18.4,N/A,,Overcast,350,2013-11-27 16:54:00
12:54 PM,37.9,28.0,68,29.65,10.0,NNW,11.5,20.7,0.00,Snow,Light Snow,330,2013-11-27 17:54:00
1:54 PM,37.0,26.1,65,29.70,9.0,NW,8.1,18.4,0.00,,Overcast,320,2013-11-27 18:54:00
2:42 PM,37.4,30.2,75,29.71,10.0,West,4.6,-,N/A,,Overcast,280,2013-11-27 19:42:00
2:54 PM,37.0,30.0,76,29.73,9.0,Variable,4.6,-,0.00,Snow,Light Snow,0,2013-11-27 19:54:00
3:54 PM,37.0,26.1,65,29.78,10.0,Variable,6.9,-,0.00,,Overcast,0,2013-11-27 20:54:00
4:54 PM,35.1,21.0,57,29.83,10.0,WNW,9.2,17.3,N/A,,Overcast,300,2013-11-27 21:54:00
5:54 PM,33.1,19.0,56,29.88,10.0,WNW,9.2,16.1,N/A,,Overcast,300,2013-11-27 22:54:00
6:54 PM,32.0,16.0,52,29.94,10.0,WNW,9.2,19.6,N/A,,Mostly Cloudy,300,2013-11-27 23:54:00
7:54 PM,30.0,15.1,54,29.98,10.0,Variable,6.9,-,N/A,,Partly Cloudy,0,2013-11-28 00:54:00
8:54 PM,28.9,14.0,54,30.02,10.0,Variable,6.9,-,N/A,,Mostly Cloudy,0,2013-11-28 01:54:00
9:54 PM,28.0,12.0,51,30.07,10.0,Variable,6.9,17.3,N/A,,Mostly Cloudy,0,2013-11-28 02:54:00
10:54 PM,27.0,10.9,51,30.12,10.0,WNW,4.6,-,N/A,,Clear,300,2013-11-28 03:54:00
11:54 PM,26.1,10.9,53,30.15,10.0,WNW,5.8,-,N/A,,Clear,300,2013-11-28 04:54:00